Regional Weather Roundup
Issued by NWS Jackson, KY

Home | Current Version | Previous Version | Text Only | Print | Product List | Glossary Off
Versions: 1 2 3 4 5 6 7 8 9 10 11 12 13 14 15 16 17 18 19 20 21 22 23 24 25 26 27 28 29 30 31 32 33 34 35 36 37 38 39 40 41 42 43 44 45 46 47 48 49 50

675
ASUS43 KJKL 171710
RWRJKL

EAST KENTUCKY HOURLY WEATHER ROUNDUP
NATIONAL WEATHER SERVICE JACKSON KY
100 PM EDT TUE OCT 17 2017

NOTE: "FAIR" INDICATES FEW OR NO CLOUDS BELOW 12,000 FEET WITH
NO SIGNIFICANT WEATHER AND/OR OBSTRUCTIONS TO VISIBILITY.

* THESE REPORTS ARE NOT UNDER NWS QUALITY CONTROL AND MAY NOT
  REPORT WEATHER SUCH AS PRECIPITATION AND FOG.

KYZ079-080-083-085-087-088-110-112-115-119-120-171800
...EASTERN KENTUCKY...

CITY           SKY/WX    TMP DP  RH WIND       PRES   REMARKS
JACKSON        SUNNY     58  38  47 VRB6      30.38F
LONDON         SUNNY     59  36  42 MISG      30.38F
SOMERSET*      SUNNY     59  37  44 CALM      30.39F
MONTICELLO*    SUNNY     61  41  47 VRB5      30.39F
WILLIAMSBURG*  SUNNY     59  37  44 E5        30.38F
MIDDLESBORO*   SUNNY     57  42  56 CALM      30.39F
HARLAN APT*    SUNNY     59  36  41 CALM      30.37F
PIKE CO APT*     N/A     56  40  54 CALM      30.38F
BIG SANDY APT* SUNNY     60  40  47 S5        30.38F
MOREHEAD APT*  SUNNY     59  37  44 CALM      30.40F
$$

KYZ035-036-041-042-044-050-067-078-099-171800
...CENTRAL KENTUCKY...

CITY           SKY/WX    TMP DP  RH WIND       PRES   REMARKS
MT STERLING*   SUNNY     59  37  44 S6        30.40F
FLEMING/MASON* SUNNY     61  39  44 CALM      30.39F
DANVILLE*      SUNNY     61  37  41 CALM      30.39F
LEXINGTON      SUNNY     61  40  45 MISG      30.38F
FRANKFORT      SUNNY     62  38  40 SW6       30.37F
LOUISVILLE     MOSUNNY   63  39  41 VRB6      30.37F
LEBANON*         N/A     61  39  44 S6        30.38F
GLASGOW*       SUNNY     65  38  38 CALM      30.37F
BOWLING GREEN  SUNNY     63  42  46 E9        30.37F
$$

KYZ091>093-OHZ055-061-077-WVZ005-015-034-035-042-171800
...SOUTHERN OHIO/WEST VIRGINIA...

CITY           SKY/WX    TMP DP  RH WIND       PRES   REMARKS
COVINGTON      MOSUNNY   61  41  47 SW9       30.36F
COLUMBUS       SUNNY     62  41  46 SW9       30.33F
DAYTON         MOSUNNY   61  40  45 SW13      30.34F
WILMINGTON     SUNNY     61  41  47 SW12      30.34F
HUNTINGTON     SUNNY     60  41  49 VRB5      30.38F
CHARLESTON     MOSUNNY   60  39  45 W5        30.37F
PINEVILLE*     SUNNY     59  40  49 MISG      30.41F
BECKLEY        SUNNY     53  33  46 E6        30.37F
BLUEFIELD      SUNNY     52  31  44 NE8       30.37F
LOGAN CO APT*    N/A     59  36  41 N3        30.36F
$$

VAZ002-007-008-TNZ017-027-036-066-071-171800
...SOUTHWEST VIRGINIA/EAST TENNESSEE...

CITY           SKY/WX    TMP DP  RH WIND       PRES   REMARKS
WISE*          SUNNY     54  37  54 N6        30.39F
JONESVILLE*      N/A     61  36  39 CALM      30.39F
ABINGDON*      SUNNY     59  36  41 SE7       30.36F
BRISTOL        SUNNY     59  39  47 CALM      30.36F
MORRISTOWN*    SUNNY     59  39  47 VRB3      30.36F
SEVIERVILLE*   SUNNY     59  43  55 CALM      30.36F
KNOXVILLE      SUNNY     61  43  51 NE10      30.35F
LAFOLLETTE*    SUNNY     61  39  44 VRB5      30.40F
OAK RIDGE      SUNNY     62  43  49 VRB3      30.38
CROSSVILLE     SUNNY     58  37  45 NE5       30.36F
NASHVILLE      MOSUNNY   64  39  39 NE6       30.36F
$$

...KEY TO REMARKS...
VSB - VISIBILITY IN MILES
WCI - WIND CHILL INDEX
HX  - HEAT INDEX

$$




USA.gov is the U.S. government's official web portal to all federal, state and local government web resources and services.